• Join FlightAware (Why Join?)
  • Login
  • US Flag 
10:26AM EST


 

Airport Tracker/Info


-or-


 

Live Flight TrackerFlight Track Log ✈ THU850 ✈ 09-Jul-2013 ✈ CYQT - CYSB

Flight Track Log - Related Links

Times and Time Zones

All times are in EDT time to prevent confusion due to time zone crossing. See the THU850 flight status page for this flight to view local times or setup timezone preferences in your user account.

Time Position Orientation Groundspeed Altitude Reporting Facility
EDT Latitude Longitude Course Direction KTS MPH feet Rate Location/Type
04:28AM 48.3500 -89.2667 101° East 140 161 1,300  Level Winnipeg Center
04:29AM 48.3667 -89.1833 73° East 200 230 2,500 1,350 Climbing Winnipeg Center
04:30AM 48.3667 -89.1000 90° East 200 230 4,000 1,450 Climbing Winnipeg Center
04:31AM 48.3167 -89.0167 132° Southeast 210 242 5,400 1,350 Climbing Winnipeg Center
04:32AM 48.3000 -88.9333 107° East 210 242 6,700 1,250 Climbing Winnipeg Center
04:33AM 48.2833 -88.8667 111° Southeast 220 253 7,900 1,250 Climbing Winnipeg Center
04:34AM 48.2569 -88.6759 101° East  Level FlightAware Approximate
04:34AM 48.2667 -88.7667 104° East 230 265 9,200  Level Winnipeg Center
04:35AM 48.2500 -88.6667 104° East 240 276 10,400 1,150 Climbing Winnipeg Center
04:36AM 48.2333 -88.5667 104° East 250 288 11,500 1,150 Climbing Winnipeg Center
04:37AM 48.2167 -88.4833 107° East 250 288 12,700 1,150 Climbing Winnipeg Center
04:38AM 48.2000 -88.3500 101° East 250 288 13,800 1,050 Climbing Winnipeg Center
04:39AM 48.2000 -88.2500 90° East 250 288 14,800 1,000 Climbing Winnipeg Center
04:40AM 48.1667 -88.1500 117° Southeast 260 299 15,800 1,000 Climbing Winnipeg Center
04:41AM 48.1500 -88.0667 107° East 250 288 16,800 850 Climbing Winnipeg Center
04:42AM 48.1167 -87.9667 117° Southeast 250 288 17,500 700 Climbing Winnipeg Center
04:43AM 48.1167 -87.8667 90° East 250 288 18,200 700 Climbing Winnipeg Center
04:44AM 48.0833 -87.7667 116° Southeast 250 288 18,900 650 Climbing Winnipeg Center
04:45AM 48.0833 -87.6500 90° East 260 299 19,500 650 Climbing Winnipeg Center
04:46AM 48.0500 -87.5500 116° Southeast 260 299 20,200 600 Climbing Winnipeg Center
04:47AM 48.0500 -87.4500 90° East 260 299 20,700 550 Climbing Winnipeg Center
04:48AM 48.0167 -87.3333 113° Southeast 260 299 21,300 500 Climbing Winnipeg Center
04:49AM 48.0167 -87.2333 90° East 260 299 21,700 400 Climbing Winnipeg Center
04:50AM 47.9833 -87.1167 113° Southeast 270 311 22,100 500 Climbing Winnipeg Center
04:51AM 47.9667 -87.0167 104° East 270 311 22,700 500 Climbing Winnipeg Center
04:52AM 47.9500 -86.9000 102° East 270 311 23,100 400 Climbing Winnipeg Center
04:53AM 47.9167 -86.8000 116° Southeast 280 322 23,500 400 Climbing Winnipeg Center
04:54AM 47.9000 -86.7000 104° East 280 322 23,900 400 Climbing Winnipeg Center
04:55AM 47.8833 -86.5833 102° East 270 311 24,300 400 Climbing Winnipeg Center
04:56AM 47.8500 -86.4667 113° Southeast 280 322 24,700 350 Climbing Winnipeg Center
04:57AM 47.8333 -86.3667 104° East 280 322 25,000 150 Climbing Winnipeg Center
04:58AM 47.8167 -86.2500 102° East 280 322 25,000  Level Winnipeg Center
04:59AM 47.7833 -86.1167 110° East 290 334 25,000  Level Winnipeg Center
05:00AM 47.7833 -86.0000 90° East 300 345 25,000  Level Winnipeg Center
05:01AM 47.7500 -85.9000 116° Southeast 300 345 25,000  Level Winnipeg Center
05:02AM 47.7167 -85.7667 110° East 310 357 25,000  Level Winnipeg Center
05:03AM 47.7000 -85.6500 102° East 310 357 25,000  Level Winnipeg Center
05:04AM 47.6833 -85.5167 100° East 310 357 25,000  Level Winnipeg Center
05:05AM 47.6500 -85.4000 113° Southeast 310 357 25,000  Level Winnipeg Center
05:06AM 47.6167 -85.2833 113° Southeast 310 357 25,000  Level Winnipeg Center
05:07AM 47.6000 -85.1667 102° East 310 357 25,000  Level Winnipeg Center
05:08AM 47.5833 -85.0500 102° East 310 357 25,000  Level Winnipeg Center
05:09AM 47.5500 -84.9333 113° Southeast 310 357 25,000  Level Winnipeg Center
05:10AM 47.5333 -84.8167 102° East 310 357 25,000  Level Winnipeg Center
05:11AM 47.5000 -84.6833 110° East 310 357 25,000 50 Level Winnipeg Center
05:12AM 47.4667 -84.5667 113° Southeast 310 357 25,100  Climbing Winnipeg Center
05:13AM 47.4500 -84.4333 100° East 310 357 25,000 -50 Descending Winnipeg Center
05:14AM 47.4333 -84.3167 102° East 310 357 25,000  Level Winnipeg Center
05:15AM 47.4000 -84.2000 113° Southeast 310 357 25,000 -50 Level Winnipeg Center
05:16AM 47.3667 -84.0833 113° Southeast 310 357 24,900  Descending Winnipeg Center
05:17AM 47.3333 -83.9667 113° Southeast 310 357 25,000 50 Climbing Winnipeg Center
05:18AM 47.3000 -83.8500 113° Southeast 310 357 25,000  Level Winnipeg Center
05:19AM 47.2833 -83.7167 100° East 310 357 25,000  Level Winnipeg Center
05:20AM 47.2500 -83.6167 116° Southeast 310 357 25,000  Level Winnipeg Center
05:22AM 47.2333 -83.4833 100° East 310 357 25,000  Level Toronto Center
05:23AM 47.2000 -83.3667 113° Southeast 310 357 25,000  Level Toronto Center
05:24AM 47.2000 -83.2667 90° East 310 357 25,000  Level Toronto Center
05:25AM 47.1667 -83.1333 110° East 310 357 25,000  Level Toronto Center
05:26AM 47.1333 -83.0167 113° Southeast 310 357 25,000  Level Toronto Center
05:27AM 47.1000 -82.8833 110° East 300 345 25,000  Level Toronto Center
05:28AM 47.0833 -82.7667 102° East 310 357 25,000  Level Toronto Center
05:29AM 47.0667 -82.6667 104° East 310 357 25,000  Level Toronto Center
05:30AM 47.0500 -82.5500 102° East 300 345 25,000 -300 Level Toronto Center
05:31AM 47.0167 -82.4167 110° East 310 357 24,400 -1,250 Descending Toronto Center
05:32AM 46.9667 -82.3000 122° Southeast 340 391 22,500 -1,800 Descending Toronto Center
05:33AM 46.9333 -82.1500 108° East 360 414 20,800 -2,000 Descending Toronto Center
05:34AM 46.9000 -82.0000 108° East 370 426 18,500 -2,100 Descending Toronto Center
05:35AM 46.8833 -81.8833 102° East 360 414 16,600 -2,100 Descending Toronto Center
05:36AM 46.8333 -81.7500 119° Southeast 320 368 14,300 -2,300 Descending Toronto Center
05:37AM 46.7833 -81.6500 126° Southeast 310 357 12,000 -1,850 Descending Toronto Center
05:38AM 46.7333 -81.5500 126° Southeast 300 345 10,600 -1,400 Descending Toronto Center
05:39AM 46.7000 -81.4500 116° Southeast 290 334 9,200 -1,350 Descending Toronto Center
05:40AM 46.6500 -81.3500 126° Southeast 280 322 7,900 -1,300 Descending Toronto Center
05:41AM 46.6167 -81.2500 116° Southeast 280 322 6,600 -1,150 Descending Toronto Center
05:42AM 46.5667 -81.1833 137° Southeast 270 311 5,600 -1,000 Descending Toronto Center
05:43AM 46.5333 -81.0833 116° Southeast 270 311 4,600 -1,150 Descending Toronto Center
05:44AM 46.4833 -80.9833 126° Southeast 270 311 3,300 -800 Descending Toronto Center
05:45AM 46.4833 -80.9167 90° East 220 253 3,000 -300 Descending Toronto Center
05:47AM 46.6119 -80.8098 68° East  Level Estimated